Simultaneous Nadir Overpasses (SNOs) Predictions

Prediction of SNOs between GOES-16 and NOAA-20 Satellite Orbit:

Table of predicted SNOs for the next 14.0 days since TLE Epoch: 9/30/2023
Index Date Time (GOES-16) GOES-16 Lat,Lon NOAA-20 Lat,Lon Distance(km) Time Diff (sec)
1 09/30/2023 18:39:42 -0.05, -75.22 -0.84, -78.80 408.69 80
2 10/01/2023 18:23:35 -0.05, -75.22 0.13, -74.26 108.92 80
3 10/03/2023 06:45:21 0.05, -75.22 1.01, -79.53 490.70 80
4 10/04/2023 06:26:36 0.05, -75.23 -0.03, -75.00 27.04 80
5 10/06/2023 18:27:04 -0.04, -75.26 -0.18, -75.75 57.12 80
6 10/07/2023 18:10:58 -0.04, -75.27 0.87, -71.23 461.17 80
7 10/09/2023 06:32:44 0.03, -75.29 0.32, -76.49 137.08 80
8 10/10/2023 06:11:18 0.03, -75.30 -0.73, -71.96 381.60 80
9 10/11/2023 18:33:12 -0.02, -75.34 -0.45, -77.26 218.65 80
10 10/12/2023 18:17:06 -0.02, -75.36 0.54, -72.72 300.67 80
